Change the Weather History Date:

Thursday, September 19, 2013

  Actual Average Record
Temperature  
Mean Temperature 57 °F 62 °F  
Max Temperature 75 °F 80 °F 95 °F (1979)
Min Temperature 38 °F 44 °F 24 °F (1965)
Degree Days  
Heating Degree Days 8 4  
Month to date heating degree days 14 47  
Since 1 July heating degree days 14 63  
Cooling Degree Days 0 1  
Month to date cooling degree days 126 50  
Year to date cooling degree days 1298 843  
Growing Degree Days 5 (Base 50)    
Moisture  
Dew Point 37 °F    
Average Humidity 54    
Maximum Humidity 85    
Minimum Humidity 23    
Precipitation  
Precipitation 0.00 in 0.02 in 0.33 in (2007)
Month to date precipitation 0.14 0.23  
Year to date precipitation 2.75 6.47  
Sea Level Pressure  
Sea Level Pressure 30.11 in    
Wind  
Wind Speed 3 mph (WSW)    
Max Wind Speed 9 mph    
Max Gust Speed 13 mph    
Visibility 10 miles    
Events      
T = Trace of Precipitation, MM = Missing Value Source: NWS Daily Summary

Daily Weather History Graph

Daily Weather History Graph

Search for Another Location

Airport or City:

Trip Planner

Search our weather history database for the weather conditions in past years. The results will help you decide how hot, cold, wet, or windy it might be!

Date:

Astronomy

Sep. 19, 2013 Rise Set
Actual Time 7:32 AM MDT 7:50 PM MDT
Civil Twilight 7:03 AM MDT 8:19 PM MDT
Nautical Twilight 6:29 AM MDT 8:53 PM MDT
Astronomical Twilight 5:54 AM MDT 9:27 PM MDT
Moon 7:48 PM MDT (9/19) 7:48 AM MDT (9/19)
Length of Visible Light 13h 15m
Length of Day
12h 18m
Full, 100% of the Moon is Illuminated
Sep 19
Full
Sep 26
Last Quarter
Oct 4
New
Oct 11
First Quarter
Oct 18
Full

Hourly Weather History & Observations

Time (MDT) Temp. Windchill Dew Point Humidity Pressure Visibility Wind Dir Wind Speed Gust Speed Precip Events Conditions
12:53 AM 46.0 °F 43.9 °F 37.9 °F 73% 30.13 in 10.0 mi WSW 4.6 mph - N/A   Clear
1:53 AM 45.0 °F 41.8 °F 37.0 °F 74% 30.14 in 10.0 mi WSW 5.8 mph - N/A   Clear
2:53 AM 43.0 °F 39.5 °F 37.0 °F 80% 30.15 in 10.0 mi West 5.8 mph - N/A   Clear
3:53 AM 42.1 °F - 36.0 °F 79% 30.15 in 10.0 mi Calm Calm - N/A   Clear
4:53 AM 42.1 °F 39.2 °F 36.0 °F 79% 30.15 in 10.0 mi WSW 4.6 mph - N/A   Clear
5:53 AM 39.9 °F - 35.1 °F 83% 30.15 in - Calm Calm - N/A   Clear
6:53 AM 37.9 °F 35.5 °F 34.0 °F 86% 30.17 in - West 3.5 mph - N/A   Clear
7:53 AM 39.0 °F - 34.0 °F 82% 30.19 in - Calm Calm - N/A   Clear
8:53 AM 45.0 °F 43.5 °F 37.0 °F 74% 30.21 in - SW 3.5 mph - N/A   Clear
9:53 AM 50.0 °F - 39.0 °F 66% 30.21 in - WNW 4.6 mph - N/A   Clear
10:53 AM 57.0 °F - 37.9 °F 49% 30.20 in - Calm Calm - N/A   Clear
11:53 AM 62.1 °F - 41.0 °F 46% 30.19 in - ESE 4.6 mph - N/A   Clear
12:53 PM 64.9 °F - 39.9 °F 40% 30.17 in - SSE 6.9 mph - N/A   Clear
1:53 PM 66.9 °F - 37.0 °F 33% 30.14 in - Calm Calm - N/A   Clear
2:53 PM 69.1 °F - 37.9 °F 32% 30.12 in - SE 4.6 mph - N/A   Clear
3:53 PM 72.0 °F - 35.1 °F 26% 30.09 in - Variable 5.8 mph - N/A   Clear
4:53 PM 73.9 °F - 33.1 °F 22% 30.05 in - Calm Calm - N/A   Clear
5:53 PM 73.9 °F - 34.0 °F 23% 30.02 in - Calm Calm - N/A   Clear
6:53 PM 72.0 °F - 34.0 °F 25% 30.01 in - East 4.6 mph - N/A   Clear
7:53 PM 66.9 °F - 36.0 °F 32% 30.00 in - Calm Calm - N/A   Clear
8:53 PM 62.1 °F - 37.0 °F 39% 30.00 in - North 3.5 mph - N/A   Clear
9:53 PM 54.0 °F - 41.0 °F 62% 30.01 in - Calm Calm - N/A   Clear
10:53 PM 52.0 °F - 39.0 °F 61% 30.00 in - Calm Calm - N/A   Clear
11:53 PM 48.0 °F - 37.9 °F 68% 30.00 in - WNW 3.5 mph - N/A   Clear